Time,TemperatureF,DewpointF,PressureIn,WindDirection,WindDirectionDegrees,WindSpeedMPH,WindSpeedGustMPH,Humidity,HourlyPrecipIn,Conditions,Clouds,dailyrainin,SoftwareType,DateUTC
2015-05-04 00:00:00,75.0,66.9,29.98,WNW,286,2.0,5.0,76,0.00,,,0.00,meteobridge,2015-05-04 10:00:00,
2015-05-04 00:05:00,75.0,67.3,29.97,West,278,6.9,10.0,77,0.00,,,0.00,meteobridge,2015-05-04 10:05:00,
2015-05-04 00:10:00,75.0,67.3,29.97,SE,131,0.0,1.0,77,0.00,,,0.00,meteobridge,2015-05-04 10:10:00,
2015-05-04 00:15:00,75.0,67.3,29.97,WNW,303,4.9,8.0,77,0.00,,,0.00,meteobridge,2015-05-04 10:15:00,
2015-05-04 00:20:00,74.8,67.1,29.97,WSW,254,0.0,5.0,77,0.00,,,0.00,meteobridge,2015-05-04 10:20:00,
2015-05-04 00:25:00,75.0,67.3,29.97,WNW,293,0.0,9.0,77,0.00,,,0.00,meteobridge,2015-05-04 10:25:00,
2015-05-04 00:30:00,75.0,67.3,29.97,West,275,2.9,7.0,77,0.00,,,0.00,meteobridge,2015-05-04 10:30:00,
2015-05-04 00:35:00,75.0,67.3,29.96,SSE,168,0.9,9.0,77,0.00,,,0.00,meteobridge,2015-05-04 10:35:00,
2015-05-04 00:40:00,74.8,67.5,29.97,WNW,297,2.9,3.0,78,0.00,,,0.00,meteobridge,2015-05-04 10:40:00,
2015-05-04 00:45:00,75.0,67.6,29.96,NNE,13,2.0,5.0,78,0.00,,,0.00,meteobridge,2015-05-04 10:45:00,
2015-05-04 00:50:00,75.0,67.6,29.96,North,1,4.0,6.0,78,0.00,,,0.00,meteobridge,2015-05-04 10:50:00,
2015-05-04 00:55:00,75.0,67.6,29.96,NNE,32,0.0,3.0,78,0.00,,,0.00,meteobridge,2015-05-04 10:55:00,
2015-05-04 01:00:00,75.0,67.6,29.96,NE,56,0.9,2.0,78,0.00,,,0.00,meteobridge,2015-05-04 11:00:00,
2015-05-04 01:05:00,75.0,67.6,29.96,NNW,336,2.9,8.0,78,0.00,,,0.00,meteobridge,2015-05-04 11:05:00,
2015-05-04 01:10:00,75.0,67.6,29.96,NE,52,0.0,3.0,78,0.00,,,0.00,meteobridge,2015-05-04 11:10:00,
2015-05-04 01:15:00,75.2,67.8,29.96,ENE,67,0.0,4.0,78,0.00,,,0.00,meteobridge,2015-05-04 11:15:00,
2015-05-04 01:20:00,75.2,67.5,29.96,SW,215,4.9,8.0,77,0.00,,,0.00,meteobridge,2015-05-04 11:20:00,
2015-05-04 01:25:00,75.4,67.6,29.96,ESE,118,0.0,3.0,77,0.00,,,0.00,meteobridge,2015-05-04 11:25:00,
2015-05-04 01:30:00,75.4,67.6,29.96,SSW,195,4.0,9.0,77,0.00,,,0.00,meteobridge,2015-05-04 11:30:00,
2015-05-04 01:35:00,75.4,67.6,29.96,SW,230,4.0,5.0,77,0.00,,,0.00,meteobridge,2015-05-04 11:35:00,
2015-05-04 01:40:00,75.4,68.0,29.96,ESE,116,2.9,10.0,78,0.00,,,0.00,meteobridge,2015-05-04 11:40:00,
2015-05-04 01:45:00,75.4,67.6,29.96,NW,305,6.0,14.0,77,0.00,,,0.00,meteobridge,2015-05-04 11:45:00,
2015-05-04 01:50:00,75.4,67.6,29.96,WSW,242,2.9,5.0,77,0.00,,,0.00,meteobridge,2015-05-04 11:50:00,
2015-05-04 01:55:00,75.4,67.6,29.96,North,5,4.0,14.0,77,0.00,,,0.00,meteobridge,2015-05-04 11:55:00,
2015-05-04 02:00:00,75.4,67.6,29.96,NNE,18,2.0,5.0,77,0.00,,,0.00,meteobridge,2015-05-04 12:00:00,
2015-05-04 02:05:00,75.2,67.5,29.96,North,5,6.9,11.0,77,0.00,,,0.00,meteobridge,2015-05-04 12:05:00,
2015-05-04 02:11:00,75.2,67.5,29.95,NNW,334,6.0,8.0,77,0.00,,,0.00,meteobridge,2015-05-04 12:11:00,
2015-05-04 02:16:00,75.0,67.3,29.95,NNE,25,0.0,13.0,77,0.00,,,0.00,meteobridge,2015-05-04 12:16:00,
2015-05-04 02:21:00,75.0,67.3,29.95,NW,315,2.9,6.0,77,0.00,,,0.00,meteobridge,2015-05-04 12:21:00,
2015-05-04 02:26:00,75.0,67.6,29.95,East,91,0.9,12.0,78,0.00,,,0.00,meteobridge,2015-05-04 12:26:00,
2015-05-04 02:31:00,74.8,67.5,29.95,North,10,4.0,6.0,78,0.00,,,0.00,meteobridge,2015-05-04 12:31:00,
2015-05-04 02:36:00,74.8,67.5,29.95,NW,318,0.0,8.0,78,0.00,,,0.00,meteobridge,2015-05-04 12:36:00,
2015-05-04 02:41:00,74.8,67.1,29.95,ESE,108,0.0,10.0,77,0.00,,,0.00,meteobridge,2015-05-04 12:41:00,
2015-05-04 02:46:00,74.7,66.9,29.95,North,5,2.0,3.0,77,0.00,,,0.00,meteobridge,2015-05-04 12:46:00,
2015-05-04 02:51:00,74.8,67.5,29.95,SW,235,2.0,9.0,78,0.00,,,0.00,meteobridge,2015-05-04 12:51:00,
2015-05-04 02:56:00,74.8,67.1,29.95,NW,314,8.1,11.0,77,0.00,,,0.00,meteobridge,2015-05-04 12:56:00,
2015-05-04 03:01:00,74.8,67.1,29.95,West,266,4.0,9.0,77,0.00,,,0.00,meteobridge,2015-05-04 13:01:00,
2015-05-04 03:06:00,75.0,67.3,29.95,East,87,0.0,14.0,77,0.00,,,0.00,meteobridge,2015-05-04 13:06:00,
2015-05-04 03:11:00,75.0,67.3,29.95,SSW,213,6.9,12.0,77,0.00,,,0.00,meteobridge,2015-05-04 13:11:00,
2015-05-04 03:16:00,75.0,67.6,29.94,North,3,4.0,10.0,78,0.00,,,0.00,meteobridge,2015-05-04 13:16:00,
2015-05-04 03:21:00,74.8,67.1,29.94,South,189,2.9,16.0,77,0.00,,,0.00,meteobridge,2015-05-04 13:21:00,
2015-05-04 03:26:00,74.8,67.1,29.95,WNW,300,0.0,6.0,77,0.00,,,0.00,meteobridge,2015-05-04 13:26:00,
2015-05-04 03:31:00,74.8,66.7,29.94,West,268,0.9,6.0,76,0.00,,,0.00,meteobridge,2015-05-04 13:31:00,
2015-05-04 03:36:00,74.8,66.7,29.95,WNW,297,4.9,13.0,76,0.00,,,0.00,meteobridge,2015-05-04 13:36:00,
2015-05-04 03:41:00,74.8,66.4,29.94,ENE,58,0.0,11.0,75,0.00,,,0.00,meteobridge,2015-05-04 13:41:00,
2015-05-04 03:46:00,74.8,66.0,29.94,NNE,22,4.0,10.0,74,0.00,,,0.00,meteobridge,2015-05-04 13:46:00,
2015-05-04 03:51:00,75.0,66.2,29.94,NW,305,4.0,5.0,74,0.00,,,0.00,meteobridge,2015-05-04 13:51:00,
2015-05-04 03:56:00,75.0,66.2,29.94,WNW,297,2.0,7.0,74,0.00,,,0.00,meteobridge,2015-05-04 13:56:00,
2015-05-04 04:01:00,75.0,66.2,29.94,WSW,258,2.0,11.0,74,0.00,,,0.00,meteobridge,2015-05-04 14:01:00,
2015-05-04 04:06:00,75.0,65.8,29.94,SSW,204,0.9,6.0,73,0.00,,,0.00,meteobridge,2015-05-04 14:06:00,
2015-05-04 04:11:00,75.0,65.8,29.94,NNE,26,0.0,2.0,73,0.00,,,0.00,meteobridge,2015-05-04 14:11:00,
2015-05-04 04:16:00,75.0,65.8,29.94,WNW,296,0.9,5.0,73,0.00,,,0.00,meteobridge,2015-05-04 14:16:00,
2015-05-04 04:21:00,75.0,65.8,29.94,NW,305,8.1,10.0,73,0.00,,,0.00,meteobridge,2015-05-04 14:21:00,
2015-05-04 04:26:00,75.0,65.8,29.94,NNW,328,4.0,5.0,73,0.00,,,0.00,meteobridge,2015-05-04 14:26:00,
2015-05-04 04:31:00,75.0,66.2,29.94,West,263,0.0,9.0,74,0.00,,,0.00,meteobridge,2015-05-04 14:31:00,
2015-05-04 04:36:00,75.0,66.2,29.94,North,10,4.0,5.0,74,0.00,,,0.00,meteobridge,2015-05-04 14:36:00,
2015-05-04 04:42:00,75.0,66.2,29.94,West,278,2.0,2.0,74,0.00,,,0.00,meteobridge,2015-05-04 14:42:00,
2015-05-04 04:47:00,75.0,65.8,29.94,South,191,8.1,8.1,73,0.00,,,0.00,meteobridge,2015-05-04 14:47:00,
2015-05-04 04:52:00,75.0,65.8,29.94,WSW,249,2.0,5.0,73,0.00,,,0.00,meteobridge,2015-05-04 14:52:00,
2015-05-04 04:57:00,75.0,66.2,29.94,West,261,6.9,7.0,74,0.00,,,0.00,meteobridge,2015-05-04 14:57:00,
2015-05-04 05:02:00,75.0,66.2,29.93,SW,216,2.0,4.0,74,0.00,,,0.00,meteobridge,2015-05-04 15:02:00,
2015-05-04 05:07:00,75.0,66.6,29.94,NW,305,2.9,9.0,75,0.00,,,0.00,meteobridge,2015-05-04 15:07:00,
2015-05-04 05:12:00,75.2,66.7,29.94,NW,310,2.0,7.0,75,0.00,,,0.00,meteobridge,2015-05-04 15:12:00,
2015-05-04 05:17:00,75.2,66.7,29.94,West,273,4.0,7.0,75,0.00,,,0.00,meteobridge,2015-05-04 15:17:00,
2015-05-04 05:22:00,75.2,66.7,29.94,North,10,2.9,6.0,75,0.00,,,0.00,meteobridge,2015-05-04 15:22:00,
2015-05-04 05:27:00,75.4,67.3,29.94,NW,308,2.9,10.0,76,0.00,,,0.00,meteobridge,2015-05-04 15:27:00,
2015-05-04 05:32:00,75.2,67.5,29.95,NNW,330,4.9,5.0,77,0.00,,,0.00,meteobridge,2015-05-04 15:32:00,
2015-05-04 05:37:00,75.0,66.6,29.95,WSW,247,2.0,11.0,75,0.00,,,0.00,meteobridge,2015-05-04 15:37:00,
2015-05-04 05:42:00,75.0,66.2,29.95,East,85,0.0,7.0,74,0.00,,,0.00,meteobridge,2015-05-04 15:42:00,
2015-05-04 05:47:00,75.0,65.8,29.95,NNE,21,2.0,5.0,73,0.00,,,0.00,meteobridge,2015-05-04 15:47:00,
2015-05-04 05:52:00,75.0,65.3,29.95,SSE,168,0.9,2.0,72,0.00,,,0.00,meteobridge,2015-05-04 15:52:00,
2015-05-04 05:57:00,75.0,65.8,29.96,SW,220,0.0,8.0,73,0.00,,,0.00,meteobridge,2015-05-04 15:57:00,
2015-05-04 06:02:00,74.8,65.7,29.96,WSW,246,4.0,7.0,73,0.00,,,0.00,meteobridge,2015-05-04 16:02:00,
2015-05-04 06:07:00,74.8,65.1,29.96,NNE,28,0.0,2.0,72,0.00,,,0.00,meteobridge,2015-05-04 16:07:00,
2015-05-04 06:12:00,74.8,65.7,29.96,WNW,285,0.0,4.0,73,0.00,,,0.00,meteobridge,2015-05-04 16:12:00,
2015-05-04 06:17:00,74.8,65.7,29.96,ENE,59,0.0,1.0,73,0.00,,,0.00,meteobridge,2015-05-04 16:17:00,
2015-05-04 06:22:00,75.0,66.2,29.96,WSW,240,0.0,7.0,74,0.00,,,0.00,meteobridge,2015-05-04 16:22:00,
2015-05-04 06:27:00,75.0,66.2,29.96,SSE,148,0.9,3.0,74,0.00,,,0.00,meteobridge,2015-05-04 16:27:00,
2015-05-04 06:32:00,75.4,66.6,29.96,East,93,0.0,12.0,74,0.00,,,0.00,meteobridge,2015-05-04 16:32:00,
2015-05-04 06:38:00,75.4,66.6,29.96,East,101,0.0,2.0,74,0.00,,,0.00,meteobridge,2015-05-04 16:38:00,
2015-05-04 06:43:00,75.4,66.9,29.96,NW,310,2.0,6.0,75,0.00,,,0.00,meteobridge,2015-05-04 16:43:00,
2015-05-04 06:48:00,75.4,67.3,29.96,North,5,2.0,4.0,76,0.00,,,0.00,meteobridge,2015-05-04 16:48:00,
2015-05-04 06:53:00,75.4,66.9,29.96,NNE,21,0.0,4.0,75,0.00,,,0.00,meteobridge,2015-05-04 16:53:00,
2015-05-04 06:58:00,75.6,67.5,29.97,NW,317,0.0,4.0,76,0.00,,,0.00,meteobridge,2015-05-04 16:58:00,
2015-05-04 07:03:00,75.7,67.3,29.97,NW,321,0.0,4.0,75,0.00,,,0.00,meteobridge,2015-05-04 17:03:00,
2015-05-04 07:08:00,76.1,67.3,29.97,WNW,292,0.0,4.0,74,0.00,,,0.00,meteobridge,2015-05-04 17:08:00,
2015-05-04 07:13:00,75.9,67.5,29.98,East,99,0.0,3.0,75,0.00,,,0.00,meteobridge,2015-05-04 17:13:00,
2015-05-04 07:18:00,76.1,67.3,29.98,West,265,0.0,5.0,74,0.00,,,0.00,meteobridge,2015-05-04 17:18:00,
2015-05-04 07:23:00,76.6,67.3,29.98,NE,56,0.0,3.0,73,0.00,,,0.00,meteobridge,2015-05-04 17:23:00,
2015-05-04 07:28:00,77.0,67.3,29.98,SW,224,4.9,13.0,72,0.00,,,0.00,meteobridge,2015-05-04 17:28:00,
2015-05-04 07:33:00,77.2,67.5,29.98,WSW,253,6.0,8.0,72,0.00,,,0.00,meteobridge,2015-05-04 17:33:00,
2015-05-04 07:38:00,77.4,68.0,29.98,NE,56,0.0,3.0,73,0.00,,,0.00,meteobridge,2015-05-04 17:38:00,
2015-05-04 07:43:00,77.4,67.6,29.99,SSW,213,0.9,5.0,72,0.00,,,0.00,meteobridge,2015-05-04 17:43:00,
2015-05-04 07:48:00,77.2,67.8,29.99,East,86,0.0,8.0,73,0.00,,,0.00,meteobridge,2015-05-04 17:48:00,
2015-05-04 07:53:00,76.8,68.4,29.99,North,8,4.0,5.0,75,0.00,,,0.00,meteobridge,2015-05-04 17:53:00,
2015-05-04 07:58:00,77.0,68.5,29.99,NNE,22,2.0,2.0,75,0.00,,,0.00,meteobridge,2015-05-04 17:58:00,
2015-05-04 08:03:00,76.8,69.1,29.99,SW,223,6.9,16.0,77,0.00,,,0.00,meteobridge,2015-05-04 18:03:00,
2015-05-04 08:08:00,76.3,68.9,29.99,WNW,301,4.9,11.0,78,0.00,,,0.00,meteobridge,2015-05-04 18:08:00,
2015-05-04 08:13:00,75.9,68.9,29.99,WNW,290,2.9,12.0,79,0.00,,,0.00,meteobridge,2015-05-04 18:13:00,
2015-05-04 08:18:00,75.7,68.7,29.99,NW,307,11.0,15.0,79,0.00,,,0.00,meteobridge,2015-05-04 18:18:00,
2015-05-04 08:23:00,75.9,68.5,29.99,WNW,288,0.9,10.0,78,0.00,,,0.00,meteobridge,2015-05-04 18:23:00,
2015-05-04 08:28:00,76.6,68.5,29.99,SW,231,4.9,14.0,76,0.00,,,0.00,meteobridge,2015-05-04 18:28:00,
2015-05-04 08:33:00,77.2,67.8,29.99,NNE,22,0.9,6.0,73,0.00,,,0.00,meteobridge,2015-05-04 18:33:00,
2015-05-04 08:38:00,77.4,68.9,30.00,WNW,288,8.9,16.0,75,0.00,,,0.00,meteobridge,2015-05-04 18:38:00,
2015-05-04 08:43:00,76.5,68.4,30.00,WSW,254,6.9,9.0,76,0.00,,,0.00,meteobridge,2015-05-04 18:43:00,
2015-05-04 08:48:00,76.1,68.4,30.00,NNE,17,4.0,10.0,77,0.00,,,0.00,meteobridge,2015-05-04 18:48:00,
2015-05-04 08:53:00,75.7,67.6,30.00,WSW,245,2.9,6.0,76,0.00,,,0.00,meteobridge,2015-05-04 18:53:00,
2015-05-04 08:58:00,75.7,67.6,30.00,West,279,6.9,13.0,76,0.00,,,0.00,meteobridge,2015-05-04 18:58:00,
2015-05-04 09:03:00,75.9,66.6,30.00,West,269,2.9,8.0,73,0.00,,,0.00,meteobridge,2015-05-04 19:03:00,
2015-05-04 09:08:00,76.5,66.4,30.00,NE,39,0.0,4.0,71,0.00,,,0.00,meteobridge,2015-05-04 19:08:00,
2015-05-04 09:13:00,77.0,66.0,30.01,NNE,28,0.0,5.0,69,0.00,,,0.00,meteobridge,2015-05-04 19:13:00,
2015-05-04 09:18:00,77.5,66.9,30.01,North,358,4.0,10.0,70,0.00,,,0.00,meteobridge,2015-05-04 19:18:00,
2015-05-04 09:23:00,77.7,67.1,30.01,NNE,17,4.9,14.0,70,0.00,,,0.00,meteobridge,2015-05-04 19:23:00,
2015-05-04 09:28:00,77.7,68.0,30.01,SW,232,2.0,11.0,72,0.00,,,0.00,meteobridge,2015-05-04 19:28:00,
2015-05-04 09:33:00,77.9,68.5,30.01,NW,308,0.0,14.0,73,0.00,,,0.00,meteobridge,2015-05-04 19:33:00,
2015-05-04 09:38:00,77.9,68.5,30.01,NNE,12,0.0,9.0,73,0.00,,,0.00,meteobridge,2015-05-04 19:38:00,
2015-05-04 09:43:00,77.7,68.7,30.01,SW,236,4.0,10.0,74,0.00,,,0.00,meteobridge,2015-05-04 19:43:00,
2015-05-04 09:49:00,77.5,68.9,30.01,ENE,60,0.0,5.0,75,0.00,,,0.00,meteobridge,2015-05-04 19:49:00,
2015-05-04 09:54:00,77.7,69.1,30.01,SE,136,2.0,10.0,75,0.00,,,0.00,meteobridge,2015-05-04 19:54:00,
2015-05-04 09:59:00,77.7,69.1,30.01,SE,139,0.0,5.0,75,0.00,,,0.00,meteobridge,2015-05-04 19:59:00,
2015-05-04 10:04:00,77.9,68.9,30.01,SW,226,15.0,19.0,74,0.00,,,0.00,meteobridge,2015-05-04 20:04:00,
2015-05-04 10:09:00,77.5,68.9,30.01,NW,312,8.1,14.0,75,0.00,,,0.00,meteobridge,2015-05-04 20:09:00,
2015-05-04 10:14:00,77.0,66.9,30.01,WSW,249,8.9,18.0,71,0.00,,,0.00,meteobridge,2015-05-04 20:14:00,
2015-05-04 10:19:00,76.8,64.2,30.01,NW,322,4.9,12.0,65,0.00,,,0.00,meteobridge,2015-05-04 20:19:00,
2015-05-04 10:24:00,77.4,64.2,30.01,NNW,341,6.0,14.0,64,0.00,,,0.00,meteobridge,2015-05-04 20:24:00,
2015-05-04 10:29:00,78.1,66.7,30.01,South,174,2.0,10.0,68,0.00,,,0.00,meteobridge,2015-05-04 20:29:00,
2015-05-04 10:34:00,78.3,67.6,30.02,SW,235,2.9,12.0,70,0.00,,,0.00,meteobridge,2015-05-04 20:34:00,
2015-05-04 10:39:00,77.9,66.0,30.03,NW,309,8.9,19.0,67,0.00,,,0.00,meteobridge,2015-05-04 20:39:00,
2015-05-04 10:44:00,74.8,65.1,30.03,NW,308,13.0,16.0,72,0.02,,,0.03,meteobridge,2015-05-04 20:44:00,
2015-05-04 10:49:00,72.3,64.8,30.03,West,263,6.0,12.0,77,0.04,,,0.04,meteobridge,2015-05-04 20:49:00,
2015-05-04 10:54:00,71.6,64.4,30.03,NW,314,4.0,5.0,78,0.04,,,0.04,meteobridge,2015-05-04 20:54:00,
2015-05-04 10:59:00,72.0,65.5,30.03,WNW,296,0.9,7.0,80,0.04,,,0.04,meteobridge,2015-05-04 20:59:00,
2015-05-04 11:04:00,72.1,65.3,30.02,NE,55,0.0,2.0,79,0.04,,,0.04,meteobridge,2015-05-04 21:04:00,
2015-05-04 11:09:00,73.0,66.9,30.02,NNE,25,0.0,3.0,81,0.04,,,0.04,meteobridge,2015-05-04 21:09:00,
2015-05-04 11:14:00,73.9,67.5,30.02,ENE,71,0.0,1.0,80,0.04,,,0.04,meteobridge,2015-05-04 21:14:00,
2015-05-04 11:24:00,75.0,68.0,30.01,NE,43,0.0,2.0,79,0.04,,,0.04,meteobridge,2015-05-04 21:24:00,
2015-05-04 11:29:00,75.6,69.3,30.01,East,85,0.0,0.0,81,0.04,,,0.04,meteobridge,2015-05-04 21:29:00,
2015-05-04 11:34:00,76.3,70.0,30.01,ESE,105,0.0,1.0,81,0.04,,,0.04,meteobridge,2015-05-04 21:34:00,
2015-05-04 11:39:00,76.6,70.3,30.01,NNW,333,4.0,8.0,81,0.04,,,0.04,meteobridge,2015-05-04 21:39:00,
2015-05-04 11:44:00,76.8,70.2,30.01,ENE,65,0.0,3.0,80,0.00,,,0.04,meteobridge,2015-05-04 21:44:00,
2015-05-04 11:49:00,77.5,70.5,30.00,West,264,2.9,16.0,79,0.00,,,0.04,meteobridge,2015-05-04 21:49:00,
2015-05-04 11:54:00,77.9,70.2,30.00,WNW,302,6.0,15.0,77,0.00,,,0.04,meteobridge,2015-05-04 21:54:00,
2015-05-04 12:04:00,78.6,70.0,30.00,ESE,105,2.0,11.0,75,0.00,,,0.04,meteobridge,2015-05-04 22:04:00,
2015-05-04 12:09:00,79.0,70.0,30.00,West,267,8.1,12.0,74,0.00,,,0.04,meteobridge,2015-05-04 22:09:00,
2015-05-04 12:14:00,79.2,69.3,29.99,SSW,208,11.0,16.0,72,0.00,,,0.04,meteobridge,2015-05-04 22:14:00,
2015-05-04 12:19:00,79.0,69.6,29.99,West,259,6.0,9.0,73,0.00,,,0.04,meteobridge,2015-05-04 22:19:00,
2015-05-04 12:24:00,79.2,69.8,29.99,West,263,6.9,10.0,73,0.00,,,0.04,meteobridge,2015-05-04 22:24:00,
2015-05-04 12:30:00,79.0,69.6,29.99,WSW,255,4.0,10.0,73,0.00,,,0.04,meteobridge,2015-05-04 22:30:00,
2015-05-04 12:35:00,79.0,69.3,29.98,WNW,300,2.9,14.0,72,0.00,,,0.04,meteobridge,2015-05-04 22:35:00,
2015-05-04 12:40:00,79.2,69.8,29.98,SSW,213,8.1,8.1,73,0.00,,,0.04,meteobridge,2015-05-04 22:40:00,
2015-05-04 12:45:00,79.5,70.2,29.98,WNW,290,6.9,10.0,73,0.00,,,0.04,meteobridge,2015-05-04 22:45:00,
2015-05-04 12:50:00,80.1,69.8,29.98,WNW,288,4.9,12.0,71,0.00,,,0.04,meteobridge,2015-05-04 22:50:00,
2015-05-04 12:55:00,80.2,68.7,29.98,SW,219,6.9,13.0,68,0.00,,,0.04,meteobridge,2015-05-04 22:55:00,
2015-05-04 13:00:00,80.2,70.0,29.98,WNW,292,2.0,5.0,71,0.00,,,0.04,meteobridge,2015-05-04 23:00:00,
2015-05-04 13:05:00,80.8,69.6,29.98,NNE,18,0.0,7.0,69,0.00,,,0.04,meteobridge,2015-05-04 23:05:00,
2015-05-04 13:10:00,81.1,70.0,29.98,South,182,4.0,9.0,69,0.00,,,0.04,meteobridge,2015-05-04 23:10:00,
2015-05-04 13:15:00,81.7,70.5,29.98,ENE,67,2.0,8.0,69,0.00,,,0.04,meteobridge,2015-05-04 23:15:00,
2015-05-04 13:20:00,81.3,69.8,29.98,WNW,295,6.9,8.0,68,0.00,,,0.04,meteobridge,2015-05-04 23:20:00,
2015-05-04 13:25:00,80.6,69.1,29.97,West,266,0.9,13.0,68,0.00,,,0.04,meteobridge,2015-05-04 23:25:00,
2015-05-04 13:30:00,81.0,69.8,29.97,NW,305,8.1,8.1,69,0.00,,,0.04,meteobridge,2015-05-04 23:30:00,
2015-05-04 13:35:00,81.0,69.4,29.97,WNW,290,6.9,13.0,68,0.00,,,0.04,meteobridge,2015-05-04 23:35:00,
2015-05-04 13:40:00,81.3,68.9,29.97,South,173,6.0,9.0,66,0.00,,,0.04,meteobridge,2015-05-04 23:40:00,
2015-05-04 13:45:00,81.0,69.4,29.97,SE,141,0.9,8.0,68,0.00,,,0.04,meteobridge,2015-05-04 23:45:00,
2015-05-04 13:50:00,81.3,69.8,29.96,SE,127,13.0,13.0,68,0.00,,,0.04,meteobridge,2015-05-04 23:50:00,
2015-05-04 13:55:00,82.0,70.3,29.97,West,259,2.0,6.0,68,0.00,,,0.04,meteobridge,2015-05-04 23:55:00,